Paducah, KY

2:24 AM CDT on April 30, 2017 (GMT -0500)
Barkley Regional

Weather History for KPAH - April, 2013

Change the Weather History Date:

Friday, April 26, 2013

  Actual Average Record
Temperature  
Mean Temperature 49 °F 61 °F  
Max Temperature 52 °F 73 °F 88 °F (1989)
Min Temperature 45 °F 50 °F 35 °F (1988)
Degree Days  
Heating Degree Days 16 5  
Month to date heating degree days 276 225  
Since 1 July heating degree days 4102 4044  
Cooling Degree Days 0 2  
Month to date cooling degree days 31 30  
Year to date cooling degree days 31 37  
Moisture  
Dew Point 45 °F    
Average Humidity 80    
Maximum Humidity 93    
Minimum Humidity 66    
Precipitation  
Precipitation 0.47 in 0.18 in 1.53 in (2017)
Month to date precipitation 4.63 4.08  
Year to date precipitation 20.40 15.60  
Snow  
Snow 0.00 in 0.00 in 0.00 in (2002)
Month to date snowfall 0.0 0.0  
Since 1 July snowfall 6.8 9.1  
Snow Depth 0.00 in    
Sea Level Pressure  
Sea Level Pressure 30.35 in    
Wind  
Wind Speed 4 mph (ESE)    
Max Wind Speed 14 mph    
Max Gust Speed 18 mph    
Visibility 8 miles    
Events Rain    
T = Trace of Precipitation, MM = Missing Value Source: NWS Daily Summary

Daily Weather History Graph

Daily Weather History Graph

Search for Another Location

Airport or City:

Trip Planner

Search our weather history database for the weather conditions in past years. The results will help you decide how hot, cold, wet, or windy it might be!

Date:

Astronomy

Apr. 26, 2013 Rise Set
Actual Time 6:06 AM CDT 7:39 PM CDT
Civil Twilight 5:38 AM CDT 8:07 PM CDT
Nautical Twilight 5:05 AM CDT 8:40 PM CDT
Astronomical Twilight 4:30 AM CDT 9:15 PM CDT
Moon 9:00 PM CDT (4/26) 6:34 AM CDT (4/26)
Length of Visible Light 14h 28m
Length of Day
13h 33m
Full, 99% of the Moon is Illuminated
Apr 26
Full
May 2
Last Quarter
May 9
New
May 17
First Quarter
May 24
Full

Hourly Weather History & Observations

Time (CDT) Temp. Windchill Dew Point Humidity Pressure Visibility Wind Dir Wind Speed Gust Speed Precip Events Conditions
12:53 AM 48.9 °F - 39.0 °F 69% 30.35 in 10.0 mi SE 4.6 mph - N/A   Clear
1:53 AM 46.9 °F - 39.9 °F 77% 30.34 in 10.0 mi ESE 4.6 mph - N/A   Clear
2:53 AM 46.0 °F 43.9 °F 39.9 °F 79% 30.33 in 10.0 mi ESE 4.6 mph - N/A   Clear
3:53 AM 48.0 °F - 39.9 °F 74% 30.34 in 10.0 mi East 3.5 mph - N/A   Clear
4:53 AM 46.9 °F - 39.9 °F 77% 30.34 in 10.0 mi ESE 5.8 mph - N/A   Clear
5:53 AM 48.0 °F - 41.0 °F 77% 30.31 in 10.0 mi ESE 5.8 mph - N/A   Mostly Cloudy
6:53 AM 50.0 °F - 39.9 °F 68% 30.32 in 10.0 mi SE 6.9 mph - N/A   Overcast
7:53 AM 50.0 °F - 41.0 °F 71% 30.38 in 10.0 mi ESE 4.6 mph - N/A   Overcast
8:53 AM 51.1 °F - 42.1 °F 71% 30.41 in 10.0 mi East 3.5 mph - N/A   Overcast
9:53 AM 52.0 °F - 43.0 °F 71% 30.44 in 10.0 mi Calm Calm - 0.00 in   Overcast
10:53 AM 51.1 °F - 45.0 °F 80% 30.43 in 5.0 mi Calm Calm - 0.00 in Rain Light Rain
11:53 AM 52.0 °F - 45.0 °F 77% 30.42 in 10.0 mi Calm Calm - 0.04 in Rain Light Rain
12:53 PM 52.0 °F - 46.9 °F 83% 30.40 in 6.0 mi Calm Calm - 0.03 in Rain Light Rain
1:53 PM 51.1 °F - 48.0 °F 89% 30.40 in 4.0 mi Calm Calm - 0.06 in Rain Light Rain
2:53 PM 51.1 °F - 48.0 °F 89% 30.43 in 7.0 mi SW 4.6 mph - 0.01 in Rain Light Rain
3:53 PM 51.1 °F - 48.9 °F 92% 30.35 in 5.0 mi SE 8.1 mph - 0.06 in Rain Light Rain
4:27 PM 51.8 °F - 48.2 °F 88% 30.27 in 7.0 mi SE 11.5 mph - 0.00 in   Mostly Cloudy
4:53 PM 51.1 °F - 48.0 °F 89% 30.31 in 9.0 mi ENE 5.8 mph - 0.00 in   Scattered Clouds
5:53 PM 52.0 °F - 48.0 °F 86% 30.30 in 10.0 mi NE 10.4 mph - N/A   Mostly Cloudy
6:53 PM 52.0 °F - 48.9 °F 89% 30.30 in 9.0 mi East 5.8 mph - 0.00 in Rain Light Rain
7:53 PM 51.1 °F - 48.0 °F 89% 30.31 in 10.0 mi East 3.5 mph - 0.00 in   Overcast
8:53 PM 50.0 °F - 48.0 °F 93% 30.32 in 8.0 mi ESE 4.6 mph - 0.03 in Rain Light Rain
9:53 PM 50.0 °F - 48.0 °F 93% 30.32 in 3.0 mi SE 4.6 mph - 0.12 in Rain Rain
10:53 PM 50.0 °F - 48.0 °F 93% 30.32 in 6.0 mi SE 3.5 mph - 0.02 in Rain Light Rain
11:53 PM 50.0 °F - 48.0 °F 93% 30.31 in 6.0 mi East 3.5 mph - 0.10 in Rain Light Rain